Weather History for Boonville, MO

Change the Weather History Date:

Wednesday, January 23, 2013

  Actual Average Record
Temperature  
Mean Temperature 28 °F -  
Max Temperature 44 °F 41 °F 75 °F (1967)
Min Temperature 13 °F 22 °F -9 °F (1963)
Degree Days  
Heating Degree Days 36    
Moisture  
Dew Point 15 °F    
Average Humidity 60    
Maximum Humidity 82    
Minimum Humidity 37    
Precipitation  
Precipitation 0.00 in - - ()
Sea Level Pressure  
Sea Level Pressure 30.25 in    
Wind  
Wind Speed 4 mph (NNW)    
Max Wind Speed 13 mph    
Max Gust Speed 20 mph    
Visibility 10 miles    
Events      
Averages and records for this station are not official NWS values.
T = Trace of Precipitation, MM = Missing Value Source: NWS Daily Summary

Daily Weather History Graph

Daily Weather History Graph

Search for Another Location

Airport:

Trip Planner

Search our weather history database for the weather conditions in past years. The results will help you decide how hot, cold, wet, or windy it might be!

Date:

Astronomy

Jan. 23, 2013 Rise Set
Actual Time 7:23 AM CST 5:21 PM CST
Civil Twilight 6:55 AM CST 5:50 PM CST
Nautical Twilight 6:22 AM CST 6:23 PM CST
Astronomical Twilight 5:51 AM CST 6:54 PM CST
Moon 2:33 PM CST (1/23) 4:35 AM CST (1/23)
Length of Visible Light 10h 55m
Length of Day
9h 58m
Waxing Gibbous, 89% of the Moon is Illuminated
Jan 23
Waxing Gibbous
Jan 26
Full
Feb 3
Last Quarter
Feb 10
New
Feb 17
First Quarter

Hourly Weather History & Observations

Time (CST) Temp. Windchill Dew Point Humidity Pressure Visibility Wind Dir Wind Speed Gust Speed Precip Events Conditions
12:15 AM 15.8 °F 10.2 °F 9.1 °F 75% 30.32 in 10.0 mi East 3.5 mph - N/A   Clear
12:35 AM 15.8 °F - 9.3 °F 76% 30.31 in 10.0 mi Calm Calm - N/A   Clear
12:55 AM 15.4 °F 9.8 °F 9.0 °F 76% 30.30 in 10.0 mi ENE 3.5 mph - N/A   Clear
1:15 AM 15.3 °F 9.6 °F 8.6 °F 75% 30.30 in 10.0 mi East 3.5 mph - N/A   Clear
1:35 AM 15.1 °F 9.4 °F 8.6 °F 76% 30.30 in 10.0 mi ENE 3.5 mph - N/A   Clear
1:55 AM 15.4 °F 9.8 °F 8.8 °F 75% 30.30 in 10.0 mi East 3.5 mph - N/A   Clear
2:15 AM 15.3 °F 9.6 °F 8.6 °F 75% 30.30 in 10.0 mi East 3.5 mph - N/A   Clear
2:35 AM 15.1 °F 9.4 °F 8.6 °F 76% 30.30 in 10.0 mi East 3.5 mph - N/A   Clear
2:55 AM 15.1 °F 7.7 °F 9.0 °F 77% 30.29 in 10.0 mi East 4.6 mph - N/A   Clear
3:15 AM 14.9 °F 9.2 °F 8.8 °F 77% 30.28 in 10.0 mi ESE 3.5 mph - N/A   Clear
3:35 AM 14.7 °F 9.0 °F 8.6 °F 77% 30.27 in 10.0 mi East 3.5 mph - N/A   Clear
3:55 AM 14.7 °F - 8.6 °F 77% 30.27 in 10.0 mi Calm Calm - N/A   Clear
4:15 AM 14.4 °F 8.6 °F 8.4 °F 77% 30.26 in 10.0 mi East 3.5 mph - N/A   Clear
4:35 AM 14.0 °F - 8.4 °F 78% 30.26 in 10.0 mi Calm Calm - N/A   Clear
4:55 AM 14.0 °F 8.2 °F 8.4 °F 78% 30.26 in 10.0 mi ESE 3.5 mph - N/A   Clear
5:15 AM 13.6 °F 7.7 °F 8.4 °F 80% 30.26 in 10.0 mi ESE 3.5 mph - N/A   Clear
5:55 AM 13.5 °F - 8.6 °F 81% 30.26 in 10.0 mi Calm Calm - N/A   Clear
6:35 AM 13.8 °F 8.0 °F 8.6 °F 80% 30.26 in 10.0 mi East 3.5 mph - N/A   Clear
6:55 AM 13.8 °F - 8.6 °F 80% 30.26 in 10.0 mi Calm Calm - N/A   Clear
7:15 AM 13.6 °F - 8.6 °F 80% 30.25 in 10.0 mi Calm Calm - N/A   Clear
7:55 AM 13.8 °F 8.0 °F 9.1 °F 82% 30.25 in 10.0 mi SSE 3.5 mph - N/A   Clear
8:15 AM 15.3 °F 7.9 °F 9.9 °F 79% 30.25 in 10.0 mi SSE 4.6 mph - N/A   Clear
8:35 AM 16.7 °F 7.2 °F 10.6 °F 77% 30.23 in 10.0 mi South 6.9 mph - N/A   Clear
8:55 AM 18.5 °F 10.4 °F 11.7 °F 75% 30.23 in 10.0 mi South 5.8 mph - N/A   Clear
9:15 AM 21.0 °F 14.6 °F 12.9 °F 71% 30.24 in 10.0 mi South 4.6 mph - N/A   Clear
9:35 AM 23.2 °F - 14.2 °F 68% 30.25 in 10.0 mi Calm Calm - N/A   Clear
9:55 AM 25.2 °F - 15.4 °F 67% 30.25 in 10.0 mi Calm Calm - N/A   Clear
10:15 AM 27.7 °F - 16.0 °F 62% 30.24 in 10.0 mi Calm Calm - N/A   Clear
10:35 AM 29.7 °F - 16.5 °F 58% 30.24 in 10.0 mi Calm Calm - N/A   Clear
10:55 AM 31.6 °F - 17.4 °F 56% 30.24 in 10.0 mi Calm Calm - N/A   Clear
11:15 AM 33.3 °F 30.2 °F 17.6 °F 53% 30.23 in 10.0 mi North 3.5 mph - N/A   Clear
11:35 AM 34.9 °F 32.0 °F 18.3 °F 51% 30.22 in 10.0 mi West 3.5 mph - N/A   Clear
11:55 AM 36.5 °F - 18.0 °F 47% 30.21 in 10.0 mi Calm Calm - N/A   Clear
12:15 PM 37.8 °F 35.3 °F 18.3 °F 46% 30.20 in 10.0 mi West 3.5 mph - N/A   Clear
12:35 PM 39.2 °F 34.2 °F 18.7 °F 44% 30.19 in 10.0 mi NNW 6.9 mph - N/A   Clear
12:55 PM 39.6 °F 34.7 °F 19.2 °F 44% 30.18 in 10.0 mi NNW 6.9 mph - N/A   Clear
1:15 PM 39.6 °F 35.4 °F 19.2 °F 44% 30.17 in 10.0 mi West 5.8 mph - N/A   Clear
1:35 PM 40.8 °F 36.2 °F 19.8 °F 43% 30.17 in 10.0 mi West 6.9 mph - N/A   Clear
1:55 PM 41.9 °F 36.9 °F 20.1 °F 42% 30.16 in 10.0 mi WNW 8.1 mph - N/A   Clear
2:15 PM 43.0 °F 38.2 °F 20.1 °F 40% 30.16 in 10.0 mi WNW 8.1 mph - N/A   Clear
2:35 PM 43.5 °F 39.4 °F 19.9 °F 39% 30.16 in 10.0 mi West 6.9 mph - N/A   Clear
2:55 PM 44.2 °F 39.2 °F 19.6 °F 37% 30.16 in 10.0 mi West 9.2 mph - N/A   Clear
3:15 PM 44.4 °F 40.0 °F 20.3 °F 38% 30.17 in 10.0 mi West 8.1 mph - N/A   Clear
3:35 PM 44.2 °F 39.7 °F 20.7 °F 39% 30.17 in 10.0 mi WNW 8.1 mph - N/A   Clear
3:55 PM 44.1 °F 39.5 °F 19.9 °F 38% 30.17 in 10.0 mi WNW 8.1 mph - N/A   Clear
4:15 PM 43.9 °F 40.5 °F 19.8 °F 38% 30.18 in 10.0 mi WNW 5.8 mph - N/A   Clear
4:35 PM 43.3 °F 38.6 °F 19.9 °F 39% 30.18 in 10.0 mi NW 8.1 mph - N/A   Clear
4:55 PM 42.1 °F 38.4 °F 20.5 °F 42% 30.18 in 10.0 mi NW 5.8 mph - N/A   Clear
5:15 PM 40.3 °F 38.2 °F 20.3 °F 45% 30.19 in 10.0 mi NW 3.5 mph - N/A   Clear
5:35 PM 39.0 °F 36.8 °F 20.3 °F 47% 30.20 in 10.0 mi NW 3.5 mph - N/A   Clear
5:55 PM 38.7 °F - 20.1 °F 47% 30.22 in 10.0 mi Calm Calm - N/A   Clear
6:15 PM 37.9 °F 34.4 °F 20.1 °F 49% 30.22 in 10.0 mi NNW 4.6 mph - N/A   Clear
6:35 PM 36.7 °F 30.5 °F 20.3 °F 52% 30.23 in 10.0 mi North 8.1 mph - N/A   Clear
6:55 PM 36.3 °F 30.1 °F 20.3 °F 52% 30.24 in 10.0 mi NNW 8.1 mph - N/A   Clear
7:15 PM 35.8 °F 29.4 °F 20.3 °F 53% 30.25 in 10.0 mi North 8.1 mph - N/A   Clear
7:35 PM 35.1 °F 31.0 °F 19.9 °F 54% 30.26 in 10.0 mi NNW 4.6 mph - N/A   Clear
7:55 PM 34.5 °F 27.9 °F 19.9 °F 55% 30.27 in 10.0 mi North 8.1 mph - N/A   Clear
8:15 PM 34.3 °F 27.7 °F 19.8 °F 55% 30.28 in 10.0 mi North 8.1 mph - N/A   Clear
8:35 PM 33.4 °F 25.4 °F 19.0 °F 56% 30.29 in 10.0 mi North 10.4 mph 17.3 mph N/A   Clear
8:55 PM 32.9 °F 23.7 °F 17.4 °F 53% 30.31 in 10.0 mi North 12.7 mph 19.6 mph N/A   Clear
9:15 PM 32.2 °F 24.4 °F 16.0 °F 51% 30.32 in 10.0 mi North 9.2 mph - N/A   Clear
9:35 PM 31.3 °F 24.7 °F 15.8 °F 53% 30.33 in 10.0 mi North 6.9 mph - N/A   Clear
9:55 PM 30.4 °F 20.5 °F 14.7 °F 52% 30.34 in 10.0 mi North 12.7 mph 16.1 mph N/A   Clear
10:15 PM 29.8 °F 21.5 °F 13.6 °F 51% 30.35 in 10.0 mi NNW 9.2 mph - N/A   Clear
10:35 PM 28.9 °F - 14.0 °F 54% 30.36 in 10.0 mi Calm Calm - N/A   Clear
10:55 PM 28.0 °F 18.6 °F 14.5 °F 57% 30.38 in 10.0 mi North 10.4 mph - N/A   Clear
11:15 PM 27.5 °F 18.0 °F 14.5 °F 58% 30.39 in 10.0 mi NNW 10.4 mph - N/A   Clear
11:35 PM 26.8 °F 18.5 °F 14.4 °F 60% 30.38 in 10.0 mi NNW 8.1 mph - N/A   Clear
11:55 PM 26.1 °F 18.4 °F 14.4 °F 61% 30.39 in 10.0 mi NNW 6.9 mph - N/A   Clear